Weather History for Philadelphia Wings Airport, PA

Change the Weather History Date:

Friday, February 1, 2013

  Actual Average (KPNE) Record (KPNE)
Temperature  
Mean Temperature 28 °F -  
Max Temperature 32 °F 38 °F 64 °F (2002)
Min Temperature 23 °F 24 °F 15 °F (2005)
Degree Days  
Heating Degree Days 38    
Moisture  
Dew Point 12 °F    
Average Humidity 49    
Maximum Humidity 80    
Minimum Humidity 34    
Precipitation  
Precipitation 0.00 in - - ()
Sea Level Pressure  
Sea Level Pressure 30.00 in    
Wind  
Wind Speed 8 mph (West)    
Max Wind Speed 18 mph    
Max Gust Speed 32 mph    
Visibility 10 miles    
Events      
Averages and records for this station are not official NWS values.
T = Trace of Precipitation, MM = Missing Value Source: NWS Daily Summary

Daily Weather History Graph

Daily Weather History Graph

Search for Another Location

Airport:

Trip Planner

Search our weather history database for the weather conditions in past years. The results will help you decide how hot, cold, wet, or windy it might be!

Date:

Astronomy

Feb. 01, 2013 Rise Set
Actual Time 7:09 AM EST 5:20 PM EST
Civil Twilight 6:40 AM EST 5:48 PM EST
Nautical Twilight 6:08 AM EST 6:21 PM EST
Astronomical Twilight 5:36 AM EST 6:53 PM EST
Moon 11:25 PM EST (2/1) 9:41 AM EST (2/1)
Length of Visible Light 11h 07m
Length of Day
10h 10m
Waning Gibbous, 70% of the Moon is Illuminated
Feb 1
Waning Gibbous
Feb 3
Last Quarter
Feb 10
New
Feb 17
First Quarter
Feb 25
Full

Hourly Weather History & Observations

Time (EST) Temp. Windchill Dew Point Humidity Pressure Visibility Wind Dir Wind Speed Gust Speed Precip Events Conditions
12:15 AM 30.2 °F 21.9 °F 14.0 °F 51% 29.84 in 10.0 mi WSW 9.2 mph - N/A   Mostly Cloudy
12:35 AM 30.2 °F 22.6 °F 12.2 °F 47% 29.84 in 10.0 mi SW 8.1 mph - N/A   Scattered Clouds
12:55 AM 30.2 °F 21.3 °F 12.2 °F 47% 29.83 in 10.0 mi WSW 10.4 mph - N/A   Clear
1:15 AM 30.2 °F 21.9 °F 14.0 °F 51% 29.84 in 10.0 mi WSW 9.2 mph 16.1 mph N/A   Clear
1:35 AM 30.2 °F 23.4 °F 14.0 °F 51% 29.83 in 10.0 mi WSW 6.9 mph - N/A   Clear
1:55 AM 30.2 °F 24.3 °F 14.0 °F 51% 29.82 in 10.0 mi WSW 5.8 mph - N/A   Clear
2:15 AM 30.2 °F 24.3 °F 14.0 °F 51% 29.83 in 10.0 mi SW 5.8 mph - N/A   Clear
2:35 AM 30.2 °F 24.3 °F 14.0 °F 51% 29.84 in 10.0 mi SW 5.8 mph - N/A   Clear
3:15 AM 30.2 °F 24.3 °F 14.0 °F 51% 29.84 in 10.0 mi SW 5.8 mph - N/A   Clear
3:35 AM 30.2 °F 23.4 °F 14.0 °F 51% 29.83 in 10.0 mi SW 6.9 mph - N/A   Clear
3:55 AM 30.2 °F 25.4 °F 14.0 °F 51% 29.83 in 10.0 mi SW 4.6 mph - N/A   Clear
4:15 AM 30.2 °F - 15.8 °F 55% 29.83 in 10.0 mi Calm Calm - N/A   Clear
4:35 AM 30.2 °F - 15.8 °F 55% 29.83 in 10.0 mi Calm Calm - N/A   Clear
5:15 AM 30.2 °F 25.4 °F 15.8 °F 55% 29.83 in 10.0 mi WSW 4.6 mph - N/A   Clear
5:35 AM 32.0 °F - 15.8 °F 51% 29.84 in 10.0 mi Calm Calm - N/A   Clear
5:55 AM 32.0 °F - 17.6 °F 55% 29.84 in 10.0 mi Calm Calm - N/A   Clear
6:15 AM 32.0 °F 28.7 °F 17.6 °F 55% 29.84 in 10.0 mi West 3.5 mph - N/A   Clear
6:35 AM 32.0 °F - 17.6 °F 55% 29.84 in 10.0 mi Calm Calm - N/A   Clear
7:15 AM 30.2 °F 25.4 °F 17.6 °F 60% 29.85 in 10.0 mi NW 4.6 mph - N/A   Scattered Clouds
7:35 AM 30.2 °F 23.4 °F 17.6 °F 60% 29.85 in 10.0 mi West 6.9 mph - N/A   Clear
7:55 AM 30.2 °F 25.4 °F 19.4 °F 64% 29.85 in 10.0 mi West 4.6 mph - N/A   Clear
8:15 AM 30.2 °F 24.3 °F 19.4 °F 64% 29.86 in 10.0 mi West 5.8 mph - N/A   Clear
8:35 AM 32.0 °F 25.6 °F 19.4 °F 60% 29.87 in 10.0 mi NW 6.9 mph - N/A   Clear
9:15 AM 30.2 °F 20.2 °F 19.4 °F 64% 29.89 in 5.0 mi NW 12.7 mph 18.4 mph N/A   Overcast
9:35 AM 28.4 °F 19.1 °F 21.2 °F 74% 29.91 in 2.0 mi NNW 10.4 mph 21.9 mph N/A   Overcast
9:55 AM 26.6 °F 18.2 °F 21.2 °F 80% 29.91 in 1.8 mi WNW 8.1 mph - N/A   Overcast
10:15 AM 28.4 °F 20.4 °F 19.4 °F 69% 29.92 in 10.0 mi WNW 8.1 mph - N/A   Scattered Clouds
10:35 AM 30.2 °F 20.8 °F 17.6 °F 60% 29.92 in 10.0 mi WNW 11.5 mph 19.6 mph N/A   Clear
10:55 AM 30.2 °F 19.8 °F 14.0 °F 51% 29.93 in 10.0 mi WNW 13.8 mph 23.0 mph N/A   Clear
11:15 AM 30.2 °F 20.2 °F 12.2 °F 47% 29.93 in 10.0 mi NW 12.7 mph 21.9 mph N/A   Clear
11:35 AM 30.2 °F 19.8 °F 10.4 °F 44% 29.94 in 10.0 mi WNW 13.8 mph 25.3 mph N/A   Scattered Clouds
11:55 AM 30.2 °F 19.8 °F 8.6 °F 40% 29.94 in 10.0 mi WNW 13.8 mph 26.5 mph N/A   Scattered Clouds
12:15 PM 30.2 °F 20.2 °F 8.6 °F 40% 29.94 in 10.0 mi WNW 12.7 mph 23.0 mph N/A   Scattered Clouds
12:35 PM 30.2 °F 19.3 °F 8.6 °F 40% 29.95 in 10.0 mi WNW 15.0 mph 24.2 mph N/A   Scattered Clouds
12:55 PM 30.2 °F 20.2 °F 8.6 °F 40% 29.96 in 10.0 mi NW 12.7 mph 20.7 mph N/A   Scattered Clouds
1:15 PM 32.0 °F 24.2 °F 10.4 °F 41% 29.97 in 10.0 mi NW 9.2 mph 20.7 mph N/A   Mostly Cloudy
1:35 PM 30.2 °F 18.9 °F 6.8 °F 37% 29.98 in 10.0 mi NW 16.1 mph 24.2 mph N/A   Scattered Clouds
1:55 PM 32.0 °F 21.6 °F 10.4 °F 41% 29.98 in 10.0 mi WNW 15.0 mph 25.3 mph N/A   Scattered Clouds
2:15 PM 32.0 °F 21.6 °F 6.8 °F 35% 29.99 in 10.0 mi WNW 15.0 mph 32.2 mph N/A   Scattered Clouds
2:35 PM 32.0 °F 22.5 °F 6.8 °F 35% 30.00 in 10.0 mi West 12.7 mph 18.4 mph N/A   Mostly Cloudy
2:55 PM 30.2 °F 18.1 °F 6.8 °F 37% 30.01 in 10.0 mi WNW 18.4 mph 26.5 mph N/A   Scattered Clouds
3:15 PM 32.0 °F 22.1 °F 6.8 °F 35% 30.02 in 10.0 mi West 13.8 mph 20.7 mph N/A   Scattered Clouds
3:35 PM 30.2 °F 22.6 °F 5.0 °F 34% 30.03 in 10.0 mi WNW 8.1 mph 24.2 mph N/A   Scattered Clouds
3:55 PM 30.2 °F 18.9 °F 8.6 °F 40% 30.05 in 10.0 mi West 16.1 mph 24.2 mph N/A   Clear
4:15 PM 30.2 °F 19.3 °F 8.6 °F 40% 30.06 in 10.0 mi WNW 15.0 mph 25.3 mph N/A   Scattered Clouds
4:35 PM 30.2 °F 19.3 °F 8.6 °F 40% 30.07 in 10.0 mi West 15.0 mph 21.9 mph N/A   Scattered Clouds
5:15 PM 28.4 °F 19.7 °F 8.6 °F 43% 30.10 in 10.0 mi West 9.2 mph 19.6 mph N/A   Scattered Clouds
5:35 PM 28.4 °F 18.5 °F 8.6 °F 43% 30.11 in 10.0 mi West 11.5 mph 17.3 mph N/A   Scattered Clouds
6:15 PM 28.4 °F 18.0 °F 8.6 °F 43% 30.14 in 10.0 mi WNW 12.7 mph 17.3 mph N/A   Clear
6:35 PM 28.4 °F 21.2 °F 8.6 °F 43% 30.15 in 10.0 mi West 6.9 mph - N/A   Clear
6:55 PM 26.6 °F 15.7 °F 6.8 °F 43% 30.17 in 10.0 mi West 12.7 mph 19.6 mph N/A   Clear
7:15 PM 26.6 °F 16.8 °F 6.8 °F 43% 30.18 in 10.0 mi West 10.4 mph 18.4 mph N/A   Clear
7:35 PM 26.6 °F 16.2 °F 6.8 °F 43% 30.19 in 10.0 mi WNW 11.5 mph 16.1 mph N/A   Clear
7:55 PM 26.6 °F 16.8 °F 6.8 °F 43% 30.20 in 10.0 mi WNW 10.4 mph 18.4 mph N/A   Clear
8:15 PM 26.6 °F 16.8 °F 6.8 °F 43% 30.21 in 10.0 mi West 10.4 mph 20.7 mph N/A   Clear
8:35 PM 26.6 °F 20.0 °F 6.8 °F 43% 30.21 in 10.0 mi West 5.8 mph - N/A   Clear
8:55 PM 26.6 °F 15.7 °F 6.8 °F 43% 30.22 in 10.0 mi West 12.7 mph 21.9 mph N/A   Clear
9:15 PM 26.6 °F 18.2 °F 6.8 °F 43% 30.23 in 10.0 mi WNW 8.1 mph 17.3 mph N/A   Clear
9:35 PM 26.6 °F 19.1 °F 6.8 °F 43% 30.24 in 10.0 mi West 6.9 mph 19.6 mph N/A   Clear
9:55 PM 24.8 °F 14.6 °F 8.6 °F 50% 30.25 in 10.0 mi WNW 10.4 mph 18.4 mph N/A   Clear
10:15 PM 24.8 °F 15.3 °F 8.6 °F 50% 30.25 in 10.0 mi WNW 9.2 mph 17.3 mph N/A   Clear
10:35 PM 24.8 °F 15.3 °F 8.6 °F 50% 30.26 in 10.0 mi West 9.2 mph 16.1 mph N/A   Clear
10:55 PM 24.8 °F 16.9 °F 8.6 °F 50% 30.26 in 10.0 mi West 6.9 mph - N/A   Clear
11:15 PM 23.0 °F 15.8 °F 8.6 °F 54% 30.27 in 10.0 mi WNW 5.8 mph - N/A   Clear
11:35 PM 23.0 °F 13.1 °F 8.6 °F 54% 30.27 in 10.0 mi West 9.2 mph - N/A   Clear
11:55 PM 23.0 °F 15.8 °F 8.6 °F 54% 30.28 in 10.0 mi West 5.8 mph - N/A   Clear